Regional Weather Roundup
Issued by NWS

Home | Current Version | Previous Version | Graphics & Text | Print | Product List | Glossary On
Versions: 1 2 3 4 5 6 7 8 9 10 11 12 13 14 15 16 17 18 19 20 21 22 23 24 25 26 27 28 29 30 31 32 33 34 35 36 37 38 39 40 41 42 43 44 45 46 47 48 49 50
000
ASUS43 KBIS 282320
RWRND

NORTH DAKOTA REGIONAL WEATHER ROUNDUP
NATIONAL WEATHER SERVICE BISMARCK ND
500 PM CST SAT FEB 28 2015

NOTE: "FAIR" INDICATES FEW OR NO CLOUDS BELOW 12,000 FEET WITH NO
SIGNIFICANT WEATHER AND/OR OBSTRUCTIONS TO VISIBILITY.


NDZ001>003-009>011-017-010000-
NORTHWEST NORTH DAKOTA

CITY           SKY/WX    TMP DP  RH WIND       PRES   REMARKS
WILLISTON      CLOUDY    16   4  59 W8        30.15S WCI   5
MINOT          MOSUNNY   11   3  70 W17       30.13R WCI  -6
MINOT AFB      FLURRIES  10   5  80 NW18      30.12S WCI  -8
$$

NDZ018>021-031>035-040>046-010000-
SOUTHWEST NORTH DAKOTA

CITY           SKY/WX    TMP DP  RH WIND       PRES   REMARKS
BISMARCK       PTSUNNY   19   4  51 NW16G24   30.16R WCI   4
DICKINSON      PTSUNNY   18   4  54 W23       30.08S WCI   0
GARRISON         N/A     13   4  67 NW20      30.13S WCI  -5
HETTINGER ARPT CLOUDY    19   4  51 NW18G29   30.11S WCI   4
$$

NDZ004>008-012>016-024-026-027-054-010000-
NORTHEAST NORTH DAKOTA

CITY           SKY/WX    TMP DP  RH WIND       PRES   REMARKS
GRAND FORKS    LGT SNOW  22  17  81 SW14      30.10F WCI   9
GRND FRKS AFB  FLURRIES  21  14  73 W10       30.10S WCI  10
DEVILS LAKE    SUNNY     10   0  61 W15       30.10S WCI  -6
$$

NDZ022-023-025-028>030-036>039-047>053-010000-
SOUTHEAST NORTH DAKOTA

CITY           SKY/WX    TMP DP  RH WIND       PRES   REMARKS
FARGO          CLOUDY    26  15  63 S21       30.15S WCI  12
JAMESTOWN      CLOUDY    18  11  74 NW14      30.11R WCI   4
$$




USA.gov is the U.S. government's official web portal to all federal, state and local government web resources and services.